Zurück zum Katalog

STARLINK-37699

AktivKommunikationVLEO
NORAD 100279·PAYLOAD·🇺🇸 United States

Gestartet Aug 11, 2026 von Cape Canaveral Space Force Station

Loading…

Nächste Überflüge (nächste 24 Stunden)

TLE

AlterndSource: Space-Track

Epoche: Sep 11, 2026, 14:12 UTC

1 A0279U 26183H   26254.59207931 -.01039919  00000-0 -84032-2 0  9996
2 A0279  53.1593 301.3642 0003060  13.9834 346.1270 15.72672913  4901

Verfolge STARLINK-37699 in Echtzeit mit AllMySat

Download on the App Store